Helicity
22 63 66 -19 -2 5 -28 52 41 56 41 73 59 55 66 63 53 107 42 41 49 127 247 268 277 233 166 144 128 131 149 146 145 165 164 158 133 112 103 98 103 95 106 106 87 77 62 53 48
8 -27 24 -24 -11 -8 59 106 38 98 61 29 26 35 31 30 97 94 31 49 36 111 198 241 270 249 172 146 153 146 152 165 155 161 167 159 141 122 111 94 84 105 104 96 86 69 60 62 56
-39 -29 -34 12 -3 -28 61 75 23 68 42 25 20 29 39 79 115 106 66 44 36 113 149 201 260 242 198 154 158 168 156 172 172 154 159 158 150 139 124 118 109 102 99 93 80 66 62 62 64
-24 20 23 4 -11 19 63 36 31 19 40 42 30 10 89 130 71 101 87 52 47 94 116 270 228 194 192 166 174 175 180 171 179 169 158 171 168 152 136 131 105 95 98 85 88 77 75 73 74
-6 5 10 5 1 30 77 50 67 58 55 60 39 10 16 158 163 90 86 73 37 77 84 219 192 171 163 175 179 184 183 173 175 180 169 152 140 137 134 104 100 96 93 97 95 89 82 78 76
7 29 14 6 6 54 44 39 54 55 63 70 60 71 62 101 124 136 98 73 59 63 85 158 158 153 151 174 183 185 181 170 176 189 178 153 156 158 142 125 105 98 102 105 98 96 89 70 67
13 31 17 3 -2 3 26 116 76 83 87 83 85 145 65 83 221 117 84 46 43 60 77 155 137 135 137 152 164 177 171 183 189 180 175 176 184 171 157 134 118 123 118 100 97 94 89 72 60
21 35 21 8 21 28 42 81 78 81 113 103 66 102 100 191 153 110 63 40 42 65 93 168 155 161 146 149 182 180 189 187 186 182 211 224 204 178 154 146 135 119 120 112 96 92 88 80 66
44 65 52 16 18 28 49 59 44 45 74 77 52 82 18 97 55 65 45 30 31 69 122 138 160 171 187 158 181 204 217 204 201 237 247 212 146 126 124 116 164 123 116 112 100 84 81 83 75
72 75 36 13 61 87 94 89 74 52 23 35 21 37 63 26 72 52 65 59 38 52 85 119 157 150 181 182 207 188 216 227 230 244 219 180 134 115 89 200 196 171 144 120 109 83 52 9 65
74 76 36 58 83 126 117 59 25 40 -17 -11 25 27 45 61 53 53 21 37 57 22 43 73 137 159 192 191 255 263 277 281 236 273 237 178 191 155 192 178 176 173 142 106 98 88 57 45 63
60 95 59 56 97 101 70 58 21 22 -10 -13 2 15 27 38 25 16 33 26 27 76 26 35 68 135 207 191 263 230 288 260 314 358 269 206 238 218 167 155 144 160 132 139 112 96 136 104 108
104 76 61 65 78 44 43 42 21 5 -14 -8 12 25 42 37 17 25 2 11 22 42 69 38 105 111 160 207 228 214 222 283 305 357 256 229 230 245 173 162 137 133 134 134 120 154 129 135 129
97 150 66 37 14 24 37 38 23 16 11 21 31 61 97 61 40 35 31 25 25 28 51 124 161 127 130 167 206 246 288 342 333 290 284 244 229 242 183 196 166 147 161 142 152 143 162 160 159
133 106 57 20 18 34 83 42 3 -11 75 24 58 67 86 36 47 34 39 50 29 48 59 172 170 181 149 160 144 147 312 373 347 295 238 282 254 291 219 221 185 165 171 190 193 190 173 191 180
87 51 43 6 118 48 52 25 32 92 132 102 61 39 27 20 37 30 28 31 28 36 44 80 213 159 196 145 185 220 440 419 359 294 294 320 261 306 283 245 211 212 218 212 227 196 204 209 206
77 61 34 69 56 49 38 69 93 81 64 -0 36 29 30 30 24 34 22 21 23 28 49 77 181 231 157 192 200 265 364 399 413 396 391 361 312 284 288 272 260 301 263 242 242 240 205 230 221
29 27 45 49 53 53 6 -8 13 38 44 43 39 34 23 36 39 64 68 70 63 55 71 69 86 229 212 195 246 287 342 387 390 385 411 364 367 335 321 302 330 338 291 273 264 257 241 243 258
72 91 55 33 31 16 -9 -35 25 29 34 38 57 92 64 36 47 188 208 157 133 81 72 35 65 133 298 252 279 325 408 432 407 378 403 403 358 370 348 365 394 328 317 286 295 301 314 287 292
49 43 38 31 30 52 13 -11 -5 -26 19 107 56 5 74 292 407 151 120 108 136 124 112 55 28 53 287 358 316 316 350 387 446 432 404 466 400 425 388 399 441 363 380 349 335 343 373 342 313
73 48 49 63 107 86 12 -16 19 83 50 104 74 367 431 450 265 171 127 123 102 57 3 30 74 74 77 319 347 339 329 321 412 486 524 492 446 452 455 391 458 412 429 457 398 356 382 419 281
73 75 94 89 78 72 181 -29 96 36 151 219 326 296 339 304 170 102 102 85 51 72 133 120 133 195 116 154 309 411 457 436 420 397 480 654 565 527 450 444 501 495 504 530 432 383 381 401 326
72 102 128 114 97 90 96 120 -8 75 66 268 293 250 226 143 79 73 90 74 67 94 67 125 158 139 196 142 193 392 415 368 350 347 365 491 620 603 535 534 582 588 508 515 473 449 442 421 331
192 227 151 124 120 139 123 146 19 88 236 257 236 234 159 135 153 191 108 63 83 47 27 -11 20 117 162 233 126 226 332 327 342 394 432 463 571 620 605 564 604 559 553 594 490 495 439 393 315
170 167 242 137 182 193 150 190 236 85 182 255 242 240 204 194 174 126 108 86 30 24 56 71 76 74 120 118 202 152 272 323 351 445 516 528 532 545 581 657 615 677 648 645 585 531 523 400 439
93 172 298 258 197 161 101 196 216 83 68 187 208 244 254 264 189 128 100 61 57 53 47 67 89 64 51 87 90 96 199 303 403 394 502 488 533 544 549 656 725 688 758 726 625 543 593 566 466
276 310 291 463 398 406 295 224 170 59 211 309 273 234 227 213 166 122 126 105 165 100 91 81 47 52 24 -12 -6 -40 40 183 418 418 452 477 473 510 549 617 733 788 797 723 691 724 517 552 406
450 320 473 469 485 371 254 170 231 189 279 271 256 218 175 205 196 121 137 123 135 115 166 136 105 57 32 -1 14 -5 -27 140 412 473 527 434 464 483 550 656 742 721 718 768 713 599 588 520 451
450 454 447 457 386 443 320 281 245 386 346 260 246 210 169 143 146 123 87 75 78 104 87 97 74 54 36 48 48 32 15 130 530 518 449 475 527 565 631 656 706 749 732 819 831 644 710 777 662
612 425 450 454 367 380 381 302 344 207 173 176 122 62 39 47 54 76 78 73 93 84 57 74 42 56 38 35 -36 62 -1 86 463 544 500 611 678 727 743 779 718 829 923 981 905 645 786 835 763
Wind_Speed
19 21 24 32 22 19 18 23 31 28 27 39 36 31 39 39 39 41 30 26 25 18 18 19 19 22 21 21 23 23 24 24 24 25 26 25 25 24 24 25 25 27 28 30 31 31 31 31 31
41 40 4 37 20 20 26 30 25 29 36 35 33 31 28 33 36 36 31 28 21 13 14 16 16 19 21 19 19 20 21 20 21 23 23 23 23 22 22 22 23 24 26 28 29 29 30 30 30
44 42 44 24 17 33 38 36 34 31 38 37 39 37 37 40 35 35 31 26 18 10 10 13 17 19 19 19 18 18 16 17 19 19 20 19 19 20 20 21 21 22 24 26 27 28 29 30 29
46 24 28 22 30 40 36 42 34 33 32 34 41 45 32 29 35 38 33 22 13 9 7 7 15 19 20 18 16 15 13 14 16 16 15 15 16 17 17 17 18 19 22 23 25 27 29 29 29
37 41 34 28 36 40 35 38 38 37 41 44 40 47 39 31 33 34 32 24 14 10 6 5 12 18 20 17 15 14 12 12 13 13 12 13 13 13 12 13 15 17 19 21 23 25 28 28 28
41 36 37 34 42 43 38 40 40 43 47 45 42 46 46 33 35 35 31 24 13 9 5 6 9 14 20 15 16 15 13 11 10 11 10 9 10 10 11 11 13 16 19 20 21 24 26 28 27
37 48 49 57 54 50 49 45 48 54 51 46 53 53 51 35 35 35 30 22 11 8 7 6 4 13 17 14 15 15 14 12 10 8 7 7 5 6 8 9 10 13 15 18 20 22 24 26 25
40 45 56 56 57 55 54 52 50 56 58 56 52 51 54 43 38 37 30 23 10 3 4 6 5 12 15 14 15 17 15 11 13 9 5 2 1 3 5 6 8 10 12 14 17 19 22 23 24
35 49 54 58 64 66 55 64 61 61 65 57 58 54 51 42 41 36 32 24 11 2 9 8 7 11 15 16 16 18 17 15 12 7 6 4 3 2 1 2 6 8 11 12 15 18 19 21 23
37 54 57 59 65 69 69 71 72 73 66 65 58 38 28 22 36 31 26 26 14 8 7 7 9 17 18 17 15 20 17 16 14 11 10 9 7 5 3 3 4 6 9 11 12 14 15 17 19
48 60 68 71 74 69 73 68 60 63 34 61 58 54 48 47 38 24 27 21 16 11 10 10 16 17 21 20 16 18 19 17 16 14 13 12 10 8 6 6 4 4 5 8 9 9 11 13 15
59 58 66 71 67 69 67 69 69 62 59 62 53 55 45 39 32 28 25 22 20 14 11 12 18 23 21 22 18 21 21 22 19 17 17 16 13 12 11 9 7 6 5 6 6 8 16 15 17
65 67 67 68 59 63 62 63 66 55 62 58 55 50 49 39 31 29 25 30 19 12 11 15 16 21 23 26 22 24 28 24 21 20 21 20 19 16 15 13 11 10 8 8 8 12 10 11 12
60 73 68 68 66 65 62 59 59 55 57 52 45 49 46 46 41 38 38 39 34 22 15 13 16 22 23 26 26 24 24 25 23 22 24 25 21 19 19 16 16 15 13 11 12 11 9 8 9
64 77 72 61 61 62 56 62 46 46 27 40 41 37 43 42 43 42 41 41 43 30 19 14 19 20 27 30 33 30 28 28 28 27 28 28 26 23 23 21 20 19 17 14 14 13 11 10 8
64 71 77 61 37 42 51 69 60 47 40 40 38 59 65 67 68 70 69 70 69 53 28 19 15 19 25 31 33 30 29 31 31 31 30 31 30 27 27 24 23 22 20 18 17 16 15 12 11
53 63 56 54 57 54 46 55 54 43 38 83 68 61 58 60 58 53 57 62 65 60 56 32 19 20 23 26 31 32 33 33 32 32 33 34 32 33 31 29 26 24 24 24 21 19 18 16 13
43 39 49 59 56 67 77 67 84 66 54 57 58 55 58 53 51 52 53 58 61 61 63 54 45 26 25 26 28 32 35 36 36 36 36 37 37 38 36 34 31 29 29 27 25 23 22 19 17
64 74 79 82 78 85 88 81 77 71 65 63 57 53 43 46 42 48 57 60 59 57 60 59 55 44 35 36 39 41 42 43 43 43 41 40 39 40 40 38 36 35 34 32 30 27 25 23 19
52 62 72 84 75 65 86 93 93 91 52 40 40 46 44 37 50 60 64 67 68 70 69 69 66 59 44 45 46 50 54 54 49 46 46 44 44 45 46 43 40 38 36 35 33 32 30 28 25
48 50 62 70 76 80 91 103 64 30 31 28 38 40 43 51 61 70 75 76 76 76 76 76 77 75 71 53 53 56 57 59 58 55 52 52 50 50 49 50 45 43 40 40 38 38 37 35 33
49 50 62 66 73 78 65 110 50 58 28 33 42 48 57 66 72 78 79 81 82 82 80 82 83 85 80 60 63 62 63 67 67 68 63 59 58 56 52 52 51 47 43 42 41 40 40 37 40
61 61 61 65 69 78 64 70 86 23 40 48 52 58 64 73 79 82 85 84 85 83 84 89 91 88 88 86 71 76 79 78 71 67 68 65 62 62 59 53 53 52 49 45 41 41 43 42 41
53 46 54 59 65 78 65 59 85 48 51 56 61 67 75 79 82 82 83 85 86 86 85 86 90 93 95 96 85 85 87 86 84 76 70 68 67 66 65 62 57 54 52 49 45 42 44 42 43
38 42 58 64 62 76 57 63 64 72 55 56 62 68 74 80 84 88 91 92 93 94 92 92 93 97 98 101 105 99 92 90 90 83 77 72 71 71 70 67 64 58 53 50 46 46 46 46 47
44 48 56 74 76 78 72 72 67 51 46 52 63 72 82 86 90 96 95 97 97 96 96 98 95 99 102 106 109 113 110 94 88 86 82 78 73 72 69 69 67 63 57 52 49 49 46 43 44
44 54 57 70 75 80 84 90 93 89 62 68 76 81 91 97 100 102 101 100 100 102 105 102 98 102 106 105 106 113 119 102 91 82 80 77 71 70 67 69 70 67 61 55 50 47 53 49 44
46 43 58 59 82 89 85 83 82 70 74 83 92 98 100 106 107 106 105 104 102 102 101 98 99 104 106 111 106 111 116 98 83 76 73 71 69 64 61 63 65 68 63 56 51 48 43 42 44
53 59 57 63 71 86 101 91 65 78 88 94 96 101 104 103 106 107 108 102 102 98 100 98 99 101 100 102 104 105 109 78 69 63 63 62 59 55 57 58 62 64 63 55 52 48 44 43 37
52 55 57 72 77 72 83 103 73 81 82 89 95 97 93 95 100 101 100 101 101 102 102 98 102 105 106 100 110 101 98 83 58 57 61 53 53 53 55 55 57 58 58 52 51 50 41 39 30
Wind_Direction
10 93 174 323 19 30 2 3 353 9 8 356 359 3 350 347 344 343 7 11 13 40 65 119 121 124 122 119 116 115 114 110 110 109 105 98 93 83 75 67 61 54 52 48 46 45 46 40 33
250 303 249 317 15 352 1 360 0 1 352 357 1 1 359 350 356 353 358 5 14 45 66 124 131 133 134 128 122 119 117 112 110 111 107 101 96 88 81 73 64 44 36 40 44 42 39 36 32
282 302 303 347 358 336 341 354 344 347 347 348 347 353 349 347 353 350 358 3 14 35 59 126 142 146 144 140 132 125 120 116 112 111 106 98 90 84 77 73 56 41 33 35 39 38 29 22 22
301 344 338 344 332 331 331 335 344 339 342 348 342 337 353 357 354 349 350 0 10 9 46 96 146 151 152 150 144 137 131 125 120 114 106 94 88 84 79 60 51 38 34 35 35 33 25 16 11
327 315 321 325 325 325 334 333 335 334 331 330 336 329 336 352 354 357 353 351 350 338 352 77 156 157 159 159 158 152 146 142 135 125 113 106 94 86 68 63 49 39 34 30 31 28 21 16 9
313 323 318 321 321 329 335 333 328 326 327 328 329 328 330 342 342 349 356 352 347 324 329 8 163 166 161 168 167 164 161 160 153 140 126 114 101 91 77 65 42 27 21 23 21 19 14 11 9
315 306 308 308 313 318 323 331 326 324 323 325 329 321 323 327 342 344 350 356 4 327 309 341 168 171 167 177 176 174 171 173 169 164 151 132 103 82 70 49 39 30 20 14 14 12 13 12 14
313 310 304 307 310 312 318 322 322 320 315 321 323 321 330 333 334 339 345 348 12 345 275 312 190 178 180 189 182 175 175 177 173 175 178 173 78 58 54 54 31 27 25 20 15 15 16 20 21
317 304 303 307 307 310 316 316 318 318 314 318 316 314 312 325 327 329 329 334 338 325 302 269 253 207 195 189 188 181 181 182 180 192 205 218 273 264 66 44 19 10 9 11 11 12 19 23 24
304 299 303 309 311 309 311 314 315 314 316 312 313 322 320 311 324 323 323 323 312 276 275 222 211 194 195 196 201 196 195 196 199 205 210 232 249 241 198 346 2 1 0 3 7 17 34 46 33
301 297 303 304 308 311 311 313 318 316 319 314 319 321 324 318 320 317 319 316 316 291 276 221 202 198 198 203 212 209 209 209 214 217 213 220 242 244 244 298 296 321 334 344 355 8 6 5 21
298 300 302 305 309 309 309 311 309 312 311 313 319 317 318 317 316 314 315 317 316 306 266 226 203 203 204 206 215 208 210 210 219 222 216 222 240 240 236 259 243 256 257 306 321 330 332 345 353
298 300 302 304 310 308 311 308 309 314 312 314 315 320 320 318 313 313 314 317 317 297 276 240 232 215 215 212 213 211 211 219 225 234 225 224 226 236 232 244 239 247 247 269 286 310 321 337 353
301 303 304 304 305 305 306 310 311 314 315 316 321 322 325 325 325 324 320 317 318 311 291 249 239 232 227 221 221 225 224 224 229 230 229 224 235 239 235 239 241 247 252 259 274 286 299 317 338
300 298 302 303 302 302 310 308 314 325 340 328 328 335 333 332 328 324 320 317 316 315 298 253 232 229 223 222 217 223 229 238 242 239 227 223 232 240 242 243 248 250 251 252 264 269 276 294 311
300 296 296 304 308 313 310 303 312 329 324 332 329 316 309 303 303 298 299 298 297 304 301 292 253 233 229 227 225 232 233 232 233 237 237 230 232 241 239 243 245 249 248 246 255 253 261 267 280
294 293 296 297 302 308 311 309 317 329 319 295 308 312 314 313 315 319 315 308 301 300 299 301 275 248 241 244 241 247 241 235 234 236 239 240 238 242 242 246 246 244 250 250 247 248 252 258 266
293 288 294 295 303 296 277 270 286 308 315 314 313 315 311 314 318 324 327 321 310 306 298 301 298 277 264 262 259 258 254 245 242 235 233 233 236 236 239 248 248 243 247 246 244 242 248 250 254
286 286 285 278 285 285 271 264 301 307 309 311 314 315 317 316 326 333 330 327 324 318 310 303 298 292 280 273 269 264 257 256 254 251 239 235 233 227 231 243 245 244 246 244 243 239 238 246 242
287 291 290 284 293 301 294 268 279 291 306 315 323 319 322 331 325 322 322 321 318 314 312 308 302 296 282 278 272 272 273 269 261 256 249 244 232 233 236 237 237 238 244 240 237 237 237 243 231
286 287 293 294 296 300 300 272 319 350 345 335 325 333 331 327 322 320 318 317 315 315 314 310 307 300 292 277 279 275 276 277 268 260 250 242 235 234 236 241 242 235 241 242 237 235 232 235 232
285 292 294 296 297 297 310 291 314 315 333 341 333 330 322 320 319 319 318 318 315 314 314 313 310 304 298 282 277 272 271 269 269 268 261 248 238 237 234 238 242 239 243 241 239 237 236 235 232
284 291 292 296 294 296 298 300 264 339 310 321 326 326 324 321 321 321 319 318 317 316 314 312 311 307 302 297 279 275 272 274 272 268 263 253 243 238 236 235 237 239 242 244 237 238 239 244 238
289 287 291 293 294 289 293 292 270 319 311 315 319 320 320 320 321 322 323 321 320 319 319 317 313 309 306 298 292 277 274 273 272 267 263 257 253 242 238 236 236 239 241 241 240 240 241 246 246
278 283 294 289 283 287 298 291 285 307 318 315 318 321 322 324 323 322 321 321 319 319 319 319 316 312 309 304 297 290 275 272 269 265 261 258 255 247 239 234 236 237 239 240 239 241 240 244 251
272 275 284 289 288 291 292 284 296 315 327 319 319 321 323 322 321 320 321 321 320 319 318 318 318 314 311 306 299 295 287 270 267 264 261 259 255 250 242 235 234 237 237 237 240 242 242 242 248
278 279 291 290 292 291 289 291 295 298 300 311 317 318 319 319 319 318 319 320 320 319 317 317 314 313 313 310 304 299 291 274 264 262 258 259 255 251 243 236 233 232 232 233 234 239 240 246 246
284 292 289 289 289 289 290 294 299 307 312 313 313 314 317 318 318 318 319 319 319 319 320 319 316 312 311 312 310 303 297 280 263 259 256 255 254 250 239 236 233 232 232 230 233 240 242 242 248
279 280 287 290 287 292 292 292 308 309 311 312 313 315 316 317 318 318 318 319 320 319 319 319 318 318 314 313 315 308 300 281 262 254 252 251 249 242 236 234 234 232 230 230 235 235 239 239 250
288 287 288 284 289 290 292 291 308 311 315 315 314 315 316 317 319 320 320 320 320 318 316 316 316 318 313 314 301 307 305 282 261 258 252 248 242 240 235 234 232 229 227 230 228 225 241 230 229